Home > Weather > Ahvaz > Past weeks

Flag for Iran Past Weather in Ahvaz, Iran — Yesterday and Last 2 Weeks

Now
113 °F

Sunny.


Feels Like: 114 °F
Forecast: 84 / 116 °F
Wind: 7 mph from Southeast

Location: Ahwaz

Current Time: Jul 25, 2016 at 4:30:15 PM

Latest Report: Jul 25, 2016 at 3:26 PM


Visibility: 10 mi

Pressure: 29.47 "Hg

Humidity: 17%

Dew Point: 59 °F

Location of AhvazLocation

Past Weather in Ahvaz — Graph

°F

Ahvaz Temperature Yesterday

Maximum temperature yesterday: 113 °F (at 3:30 PM)
Minimum temperature yesterday: 86 °F (at 6:30 AM)
Average temperature yesterday: 100 °F

High & Low Weather Summary for the Past Weeks

 TemperatureHumidityPressure
High122 °F (Jul 21, 4:00 PM)84% (Jul 20, 4:27 AM)29.59 "Hg (Jul 20, 4:27 AM)
Low84 °F (Jul 14, 6:30 AM)7% (Jul 10, 6:00 PM)29.30 "Hg (Jul 23, 6:30 PM)
Average104 °F22%29.42 "Hg
* Reported Jul 10 2:30 PM — Jul 25 3:00 PM, Ahvaz, Weather by CustomWeather, © 2016

Note: Actual official high and low records may vary slightly from our data, if they occured in-between our weather recording intervals... More about our weather records

Advertising

Ahvaz Weather History for the Previous 24 Hours

Scroll right to see more
 ConditionsComfort  
Time TempWeatherWind HumidityBarometerVisibility
3:00 PM
Mon, Jul 25
111 °FSunny.7 mph18%29.47 "Hg10 mi
2:30 PM111 °FSunny.7 mph17%29.47 "Hg10 mi
1:55 PM111 °FSunny.7 mph17%29.47 "Hg10 mi
1:30 PM111 °FSunny.7 mph14%29.47 "Hg10 mi
1:00 PM109 °FSunny.7 mph14%29.50 "Hg10 mi
12:30 PM108 °FSunny.5 mph16%29.50 "Hg10 mi
12:00 PM108 °FSunny.5 mph15%29.50 "Hg10 mi
11:30 AM106 °FSunny.5 mph17%29.50 "Hg10 mi
11:00 AM104 °FSunny.5 mph19%29.50 "Hg10 mi
10:30 AM100 °FSunny.5 mph29%29.50 "Hg10 mi
9:55 AM99 °FClear.5 mph31%29.50 "Hg4 mi
9:30 AM95 °FClear.5 mph39%29.50 "Hg4 mi
8:56 AM91 °FClear.5 mph46%29.50 "Hg4 mi
8:30 AM88 °FClear.5 mph55%29.47 "Hg4 mi
8:00 AM86 °FClear.5 mph55%29.47 "Hg4 mi
7:30 AM84 °FHaze.2 mph58%29.47 "Hg3 mi
6:30 AM84 °FHaze.2 mph58%29.45 "Hg3 mi
5:30 AM84 °FClear.2 mph58%29.42 "Hg4 mi
4:27 AM86 °FClear.5 mph49%29.42 "Hg5 mi
3:25 AM90 °FClear.5 mph46%29.42 "Hg5 mi
2:30 AM91 °FClear.5 mph44%29.42 "Hg5 mi
1:30 AM91 °FClear.5 mph41%29.42 "Hg10 mi
1:00 AM93 °FClear.5 mph39%29.42 "Hg10 mi
12:30 AM93 °FClear.5 mph34%29.42 "Hg10 mi
11:55 PM
Sun, Jul 24
97 °FClear.5 mph28%29.42 "Hg10 mi
11:30 PM99 °FClear.5 mph25%29.42 "Hg10 mi
10:54 PM100 °FClear.5 mph21%29.39 "Hg10 mi
10:30 PM95 °FClear.2 mph23%29.39 "Hg10 mi
9:55 PM93 °FClear.2 mph28%29.39 "Hg10 mi
9:26 PM95 °FSunny.2 mph25%29.39 "Hg10 mi
8:51 PM97 °FSunny.2 mph25%29.36 "Hg10 mi
8:30 PM99 °FSunny.2 mph22%29.36 "Hg10 mi
8:00 PM102 °FSunny.2 mph20%29.36 "Hg10 mi
7:30 PM108 °FSunny.2 mph22%29.36 "Hg10 mi
7:00 PM111 °FSunny.5 mph15%29.33 "Hg10 mi
6:30 PM113 °FSunny.2 mph11%29.36 "Hg10 mi
5:58 PM113 °FSunny.5 mph11%29.36 "Hg10 mi
5:30 PM113 °FSunny.5 mph10%29.36 "Hg10 mi
5:00 PM113 °FSunny.2 mph10%29.36 "Hg10 mi
4:30 PM113 °FSunny.7 mph11%29.36 "Hg10 mi
4:00 PM113 °FSunny.5 mph13%29.36 "Hg10 mi
Weather by CustomWeather, © 2016

See weather overviewHow to use our weather pages